| time (UTC) | temp F | wind direction | speed MPH | gust MPH | rain 1hr in | rain 24hr in | rain mn in | humidity % | barometer mb |
| 20260904210049 | 97 | 46 | 2.0 | 8.0 | 0.00 | 0.00 | 0.00 | 53 | 1014.4 |
| 20260904205529 | 98 | 66 | 1.0 | 4.0 | 0.00 | 0.00 | 0.00 | 51 | 1014.5 |
| 20260904205029 | 99 | 336 | 2.0 | 5.0 | 0.00 | 0.00 | 0.00 | 51 | 1014.4 |
| 20260904204556 | 99 | 13 | 1.0 | 5.0 | 0.00 | 0.00 | 0.00 | 49 | 1014.4 |
| 20260904204027 | 100 | 346 | 2.0 | 5.0 | 0.00 | 0.00 | 0.00 | 49 | 1014.4 |
| 20260904203530 | 100 | 355 | 2.0 | 4.0 | 0.00 | 0.00 | 0.00 | 49 | 1014.5 |
| 20260904203049 | 100 | 261 | 1.0 | 3.0 | 0.00 | 0.00 | 0.00 | 53 | 1014.6 |
| 20260904202529 | 99 | 257 | 1.0 | 3.0 | 0.00 | 0.00 | 0.00 | 49 | 1014.7 |
| 20260904202029 | 98 | 0 | 0.0 | 3.0 | 0.00 | 0.00 | 0.00 | 48 | 1014.7 |
| 20260904201555 | 98 | 250 | 1.0 | 5.0 | 0.00 | 0.00 | 0.00 | 49 | 1014.9 |
| 20260904201029 | 99 | 355 | 2.0 | 5.0 | 0.00 | 0.00 | 0.00 | 49 | 1014.8 |
| 20260904200530 | 99 | 60 | 2.0 | 9.0 | 0.00 | 0.00 | 0.00 | 49 | 1014.8 |
| 20260904195530 | 100 | 319 | 4.0 | 9.0 | 0.00 | 0.00 | 0.00 | 49 | 1015.0 |
| 20260904195028 | 100 | 69 | 0.0 | 5.0 | 0.00 | 0.00 | 0.00 | 48 | 1015.1 |
| 20260904194557 | 100 | 355 | 2.0 | 5.0 | 0.00 | 0.00 | 0.00 | 53 | 1015.2 |
| 20260904194030 | 99 | 171 | 1.0 | 3.0 | 0.00 | 0.00 | 0.00 | 50 | 1015.2 |
| 20260904193530 | 99 | 317 | 1.0 | 4.0 | 0.00 | 0.00 | 0.00 | 49 | 1015.3 |
| 20260904193049 | 99 | 340 | 1.0 | 5.0 | 0.00 | 0.00 | 0.00 | 49 | 1015.4 |
| 20260904192532 | 99 | 284 | 1.0 | 5.0 | 0.00 | 0.00 | 0.00 | 50 | 1015.5 |
| 20260904192029 | 99 | 323 | 2.0 | 5.0 | 0.00 | 0.00 | 0.00 | 50 | 1015.5 |
| 20260904191545 | 99 | 13 | 1.0 | 4.0 | 0.00 | 0.00 | 0.00 | 49 | 1015.6 |
| 20260904191033 | 99 | 289 | 1.0 | 6.0 | 0.00 | 0.00 | 0.00 | 54 | 1015.7 |
| 20260904190529 | 98 | 260 | 1.0 | 6.0 | 0.00 | 0.00 | 0.00 | 55 | 1015.7 |
| 20260904190055 | 98 | 327 | 2.0 | 5.0 | 0.00 | 0.00 | 0.00 | 53 | 1015.8 |
| 20260904185529 | 98 | 33 | 2.0 | 5.0 | 0.00 | 0.00 | 0.00 | 52 | 1015.9 |
| 20260904185029 | 97 | 302 | 1.0 | 3.0 | 0.00 | 0.00 | 0.00 | 56 | 1015.9 |
| 20260904184607 | 97 | 284 | 1.0 | 3.0 | 0.00 | 0.00 | 0.00 | 55 | 1016.1 |
| 20260904184029 | 97 | 346 | 1.0 | 3.0 | 0.00 | 0.00 | 0.00 | 54 | 1016.1 |
| 20260904183528 | 97 | 355 | 0.0 | 2.0 | 0.00 | 0.00 | 0.00 | 54 | 1016.2 |
| 20260904183103 | 97 | 267 | 1.0 | 2.0 | 0.00 | 0.00 | 0.00 | 53 | 1016.2 |
| 20260904182529 | 98 | 0 | 0.0 | 2.0 | 0.00 | 0.00 | 0.00 | 54 | 1016.2 |
| 20260904182035 | 98 | 276 | 1.0 | 4.0 | 0.00 | 0.00 | 0.00 | 52 | 1016.3 |
| 20260904181556 | 98 | 0 | 1.0 | 4.0 | 0.00 | 0.00 | 0.00 | 53 | 1016.3 |
| 20260904181030 | 98 | 101 | 2.0 | 5.0 | 0.00 | 0.00 | 0.00 | 52 | 1016.3 |
| 20260904180530 | 98 | 299 | 2.0 | 7.0 | 0.00 | 0.00 | 0.00 | 54 | 1016.3 |
| 20260904180050 | 98 | 28 | 2.0 | 8.0 | 0.00 | 0.00 | 0.00 | 52 | 1016.4 |
| 20260904175528 | 98 | 89 | 2.0 | 8.0 | 0.00 | 0.00 | 0.00 | 53 | 1016.4 |
| 20260904175029 | 97 | 86 | 1.0 | 5.0 | 0.00 | 0.00 | 0.00 | 55 | 1016.4 |
| 20260904174618 | 97 | 168 | 2.0 | 4.0 | 0.00 | 0.00 | 0.00 | 55 | 1016.5 |
| 20260904174030 | 96 | 85 | 1.0 | 4.0 | 0.00 | 0.00 | 0.00 | 55 | 1016.4 |
| 20260904173529 | 96 | 0 | 0.0 | 3.0 | 0.00 | 0.00 | 0.00 | 54 | 1016.5 |
| 20260904173056 | 96 | 0 | 1.0 | 3.0 | 0.00 | 0.00 | 0.00 | 53 | 1016.6 |
| 20260904172532 | 96 | 11 | 0.0 | 1.0 | 0.00 | 0.00 | 0.00 | 56 | 1016.7 |
| 20260904172030 | 97 | 0 | 0.0 | 1.0 | 0.00 | 0.00 | 0.00 | 54 | 1016.7 |
| 20260904171602 | 97 | 0 | 0.0 | 3.0 | 0.00 | 0.00 | 0.00 | 55 | 1016.9 |
| 20260904171030 | 97 | 0 | 0.0 | 5.0 | 0.00 | 0.00 | 0.00 | 52 | 1016.9 |
| 20260904170529 | 98 | 301 | 1.0 | 5.0 | 0.00 | 0.00 | 0.00 | 52 | 1017.0 |
| 20260904170050 | 98 | 298 | 2.0 | 5.0 | 0.00 | 0.00 | 0.00 | 52 | 1017.0 |
| 20260904165529 | 99 | 0 | 1.0 | 4.0 | 0.00 | 0.00 | 0.00 | 52 | 1017.0 |
| 20260904165030 | 98 | 330 | 1.0 | 5.0 | 0.00 | 0.00 | 0.00 | 53 | 1017.2 |
| 20260904164547 | 98 | 225 | 0.0 | 5.0 | 0.00 | 0.00 | 0.00 | 55 | 1017.2 |
| 20260904164029 | 98 | 325 | 2.0 | 5.0 | 0.00 | 0.00 | 0.00 | 55 | 1017.1 |
| 20260904163530 | 98 | 0 | 1.0 | 5.0 | 0.00 | 0.00 | 0.00 | 54 | 1017.2 |
| 20260904163056 | 98 | 5 | 2.0 | 4.0 | 0.00 | 0.00 | 0.00 | 52 | 1017.1 |
| 20260904162530 | 98 | 114 | 1.0 | 8.0 | 0.00 | 0.00 | 0.00 | 54 | 1017.1 |
| 20260904162029 | 97 | 219 | 2.0 | 8.0 | 0.00 | 0.00 | 0.00 | 57 | 1017.2 |
| 20260904161604 | 97 | 128 | 2.0 | 5.0 | 0.00 | 0.00 | 0.00 | 56 | 1017.2 |
| 20260904161028 | 97 | 61 | 2.0 | 5.0 | 0.00 | 0.00 | 0.00 | 55 | 1017.3 |
| 20260904160529 | 98 | 47 | 2.0 | 5.0 | 0.00 | 0.00 | 0.00 | 55 | 1017.3 |
| 20260904160049 | 98 | 46 | 1.0 | 5.0 | 0.00 | 0.00 | 0.00 | 55 | 1017.4 |
| 20260904155530 | 98 | 179 | 2.0 | 5.0 | 0.00 | 0.00 | 0.00 | 55 | 1017.4 |
| 20260904155029 | 97 | 262 | 1.0 | 3.0 | 0.00 | 0.00 | 0.00 | 58 | 1017.3 |
| 20260904154557 | 97 | 346 | 1.0 | 3.0 | 0.00 | 0.00 | 0.00 | 55 | 1017.3 |
| 20260904154118 | 97 | 278 | 1.0 | 3.0 | 0.00 | 0.00 | 0.00 | 58 | 1017.3 |
| 20260904153531 | 97 | 0 | 1.0 | 3.0 | 0.00 | 0.00 | 0.00 | 58 | 1017.4 |
| 20260904153126 | 96 | 71 | 1.0 | 3.0 | 0.00 | 0.00 | 0.00 | 59 | 1017.3 |
| 20260904152528 | 96 | 311 | 1.0 | 3.0 | 0.00 | 0.00 | 0.00 | 58 | 1017.3 |
| 20260904152029 | 96 | 19 | 1.0 | 3.0 | 0.00 | 0.00 | 0.00 | 58 | 1017.4 |
| 20260904151558 | 96 | 313 | 1.0 | 3.0 | 0.00 | 0.00 | 0.00 | 58 | 1017.3 |
| 20260904151029 | 96 | 355 | 1.0 | 3.0 | 0.00 | 0.00 | 0.00 | 57 | 1017.3 |
| 20260904150529 | 96 | 259 | 1.0 | 4.0 | 0.00 | 0.00 | 0.00 | 58 | 1017.2 |
| 20260904150051 | 96 | 136 | 1.0 | 4.0 | 0.00 | 0.00 | 0.00 | 58 | 1017.4 |
| 20260904145529 | 95 | 217 | 1.0 | 4.0 | 0.00 | 0.00 | 0.00 | 62 | 1017.3 |
| 20260904145028 | 95 | 225 | 2.0 | 4.0 | 0.00 | 0.00 | 0.00 | 60 | 1017.3 |
| 20260904144559 | 95 | 207 | 1.0 | 4.0 | 0.00 | 0.00 | 0.00 | 62 | 1017.2 |
| 20260904144029 | 95 | 0 | 1.0 | 3.0 | 0.00 | 0.00 | 0.00 | 62 | 1017.2 |
| 20260904143529 | 95 | 224 | 0.0 | 2.0 | 0.00 | 0.00 | 0.00 | 62 | 1017.2 |
| 20260904143055 | 94 | 297 | 0.0 | 3.0 | 0.00 | 0.00 | 0.00 | 63 | 1017.2 |
| 20260904142528 | 93 | 0 | 0.0 | 3.0 | 0.00 | 0.00 | 0.00 | 64 | 1017.2 |
| 20260904142032 | 93 | 224 | 0.0 | 3.0 | 0.00 | 0.00 | 0.00 | 66 | 1017.1 |
| 20260904141557 | 92 | 187 | 0.0 | 2.0 | 0.00 | 0.00 | 0.00 | 66 | 1017.2 |
| 20260904141028 | 91 | 0 | 0.0 | 2.0 | 0.00 | 0.00 | 0.00 | 69 | 1017.1 |
| 20260904140527 | 91 | 0 | 0.0 | 2.0 | 0.00 | 0.00 | 0.00 | 68 | 1017.1 |
| 20260904140052 | 90 | 249 | 0.0 | 2.0 | 0.00 | 0.00 | 0.00 | 70 | 1017.1 |
| 20260904135532 | 90 | 107 | 0.0 | 2.0 | 0.00 | 0.00 | 0.00 | 70 | 1017.1 |
| 20260904135030 | 89 | 0 | 0.0 | 2.0 | 0.00 | 0.00 | 0.00 | 72 | 1017.0 |
| 20260904134605 | 89 | 0 | 0.0 | 2.0 | 0.00 | 0.00 | 0.00 | 73 | 1017.1 |
| 20260904134029 | 88 | 0 | 1.0 | 3.0 | 0.00 | 0.00 | 0.00 | 74 | 1017.1 |
| 20260904133530 | 88 | 107 | 1.0 | 3.0 | 0.00 | 0.00 | 0.00 | 75 | 1017.0 |
| 20260904133104 | 87 | 102 | 0.0 | 3.0 | 0.00 | 0.00 | 0.00 | 75 | 1017.0 |
| 20260904132528 | 86 | 101 | 1.0 | 3.0 | 0.00 | 0.00 | 0.00 | 76 | 1016.9 |
| 20260904132028 | 86 | 178 | 1.0 | 2.0 | 0.00 | 0.00 | 0.00 | 77 | 1017.0 |
| 20260904131558 | 85 | 0 | 1.0 | 2.0 | 0.00 | 0.00 | 0.00 | 79 | 1017.0 |
| 20260904131028 | 84 | 153 | 1.0 | 2.0 | 0.00 | 0.00 | 0.00 | 81 | 1017.0 |
| 20260904130528 | 83 | 0 | 0.0 | 2.0 | 0.00 | 0.00 | 0.00 | 81 | 1016.9 |
| 20260904130052 | 82 | 153 | 1.0 | 2.0 | 0.00 | 0.00 | 0.00 | 84 | 1016.9 |
| 20260904125529 | 81 | 153 | 0.0 | 1.0 | 0.00 | 0.00 | 0.00 | 86 | 1017.0 |
| 20260904125032 | 80 | 0 | 0.0 | 1.0 | 0.00 | 0.00 | 0.00 | 87 | 1016.8 |
| 20260904124557 | 79 | 0 | 0.0 | 0.0 | 0.00 | 0.00 | 0.00 | 89 | 1016.7 |
| 20260904124030 | 78 | 0 | 0.0 | 0.0 | 0.00 | 0.00 | 0.00 | 93 | 1016.8 |
| 20260904123529 | 77 | 0 | 0.0 | 0.0 | 0.00 | 0.00 | 0.00 | 95 | 1016.6 |
| 20260904123056 | 76 | 0 | 0.0 | 0.0 | 0.00 | 0.00 | 0.00 | 95 | 1016.7 |
| 20260904122529 | 76 | 0 | 0.0 | 0.0 | 0.00 | 0.00 | 0.00 | 97 | 1016.7 |
| 20260904122028 | 75 | 0 | 0.0 | 0.0 | 0.00 | 0.00 | 0.00 | 97 | 1016.6 |
| 20260904121559 | 74 | 0 | 0.0 | 1.0 | 0.00 | 0.00 | 0.00 | 98 | 1016.5 |
| 20260904121028 | 74 | 0 | 0.0 | 1.0 | 0.00 | 0.00 | 0.00 | 98 | 1016.6 |
| 20260904120529 | 73 | 0 | 0.0 | 0.0 | 0.00 | 0.00 | 0.00 | 98 | 1016.5 |
| 20260904115529 | 73 | 0 | 0.0 | 0.0 | 0.00 | 0.00 | 0.00 | 97 | 1016.5 |
| 20260904115029 | 73 | 0 | 0.0 | 0.0 | 0.00 | 0.00 | 0.00 | 97 | 1016.4 |
| 20260904114559 | 73 | 0 | 0.0 | 0.0 | 0.00 | 0.00 | 0.00 | 97 | 1016.3 |
| 20260904114030 | 73 | 0 | 0.0 | 0.0 | 0.00 | 0.00 | 0.00 | 96 | 1016.3 |
| 20260904113530 | 73 | 0 | 0.0 | 0.0 | 0.00 | 0.00 | 0.00 | 97 | 1016.2 |
| 20260904113058 | 73 | 0 | 0.0 | 0.0 | 0.00 | 0.00 | 0.00 | 96 | 1016.1 |
| 20260904112529 | 73 | 0 | 0.0 | 0.0 | 0.00 | 0.00 | 0.00 | 96 | 1016.2 |
| 20260904112031 | 73 | 0 | 0.0 | 0.0 | 0.00 | 0.00 | 0.00 | 96 | 1016.1 |
| 20260904111558 | 73 | 0 | 0.0 | 0.0 | 0.00 | 0.00 | 0.00 | 96 | 1016.1 |
| 20260904111040 | 73 | 0 | 0.0 | 0.0 | 0.00 | 0.00 | 0.00 | 96 | 1016.0 |
| 20260904110528 | 73 | 0 | 0.0 | 0.0 | 0.00 | 0.00 | 0.00 | 96 | 1016.0 |
| 20260904110056 | 73 | 0 | 0.0 | 0.0 | 0.00 | 0.00 | 0.00 | 96 | 1015.8 |
| 20260904105528 | 73 | 0 | 0.0 | 0.0 | 0.00 | 0.00 | 0.00 | 96 | 1015.8 |
| 20260904105029 | 73 | 0 | 0.0 | 0.0 | 0.00 | 0.00 | 0.00 | 96 | 1015.8 |
| 20260904104549 | 73 | 0 | 0.0 | 0.0 | 0.00 | 0.00 | 0.00 | 96 | 1015.8 |
| 20260904104029 | 73 | 0 | 0.0 | 0.0 | 0.00 | 0.00 | 0.00 | 97 | 1015.7 |
| 20260904103528 | 73 | 0 | 0.0 | 0.0 | 0.00 | 0.00 | 0.00 | 96 | 1015.6 |
| 20260904103102 | 73 | 0 | 0.0 | 0.0 | 0.00 | 0.00 | 0.00 | 96 | 1015.6 |
| 20260904102529 | 73 | 0 | 0.0 | 0.0 | 0.00 | 0.00 | 0.00 | 96 | 1015.5 |
| 20260904102028 | 73 | 0 | 0.0 | 0.0 | 0.00 | 0.00 | 0.00 | 96 | 1015.4 |
| 20260904101558 | 73 | 0 | 0.0 | 0.0 | 0.00 | 0.00 | 0.00 | 96 | 1015.4 |
| 20260904101028 | 73 | 0 | 0.0 | 0.0 | 0.00 | 0.00 | 0.00 | 96 | 1015.4 |
| 20260904100528 | 73 | 0 | 0.0 | 0.0 | 0.00 | 0.00 | 0.00 | 96 | 1015.4 |
| 20260904100053 | 73 | 0 | 0.0 | 0.0 | 0.00 | 0.00 | 0.00 | 96 | 1015.5 |
| 20260904095529 | 74 | 0 | 0.0 | 0.0 | 0.00 | 0.00 | 0.00 | 96 | 1015.4 |
| 20260904095030 | 74 | 0 | 0.0 | 0.0 | 0.00 | 0.00 | 0.00 | 95 | 1015.5 |
| 20260904094610 | 74 | 0 | 0.0 | 0.0 | 0.00 | 0.00 | 0.00 | 96 | 1015.4 |
| 20260904094029 | 74 | 0 | 0.0 | 0.0 | 0.00 | 0.00 | 0.00 | 96 | 1015.4 |
| 20260904093528 | 74 | 0 | 0.0 | 0.0 | 0.00 | 0.00 | 0.00 | 96 | 1015.4 |
| 20260904093059 | 74 | 0 | 0.0 | 0.0 | 0.00 | 0.00 | 0.00 | 96 | 1015.5 |
| 20260904092530 | 74 | 0 | 0.0 | 0.0 | 0.00 | 0.00 | 0.00 | 96 | 1015.3 |
| 20260904092031 | 74 | 0 | 0.0 | 0.0 | 0.00 | 0.00 | 0.00 | 96 | 1015.4 |
| 20260904091552 | 74 | 0 | 0.0 | 0.0 | 0.00 | 0.00 | 0.00 | 96 | 1015.5 |
| 20260904091029 | 74 | 0 | 0.0 | 0.0 | 0.00 | 0.00 | 0.00 | 96 | 1015.5 |
| 20260904090528 | 74 | 0 | 0.0 | 0.0 | 0.00 | 0.00 | 0.00 | 96 | 1015.5 |
| 20260904085528 | 74 | 0 | 0.0 | 0.0 | 0.00 | 0.00 | 0.00 | 95 | 1015.4 |
| 20260904085028 | 74 | 0 | 0.0 | 0.0 | 0.00 | 0.00 | 0.00 | 95 | 1015.5 |
| 20260904084601 | 74 | 0 | 0.0 | 0.0 | 0.00 | 0.00 | 0.00 | 95 | 1015.4 |
| 20260904084030 | 74 | 0 | 0.0 | 0.0 | 0.00 | 0.00 | 0.00 | 95 | 1015.5 |
| 20260904083529 | 74 | 0 | 0.0 | 0.0 | 0.00 | 0.00 | 0.00 | 95 | 1015.4 |
| 20260904083104 | 74 | 0 | 0.0 | 0.0 | 0.00 | 0.00 | 0.00 | 95 | 1015.4 |
| 20260904082528 | 74 | 0 | 0.0 | 1.0 | 0.00 | 0.00 | 0.00 | 95 | 1015.5 |
| 20260904082029 | 74 | 0 | 0.0 | 1.0 | 0.00 | 0.00 | 0.00 | 95 | 1015.5 |
| 20260904081549 | 74 | 0 | 0.0 | 1.0 | 0.00 | 0.00 | 0.00 | 94 | 1015.4 |
| 20260904081028 | 75 | 0 | 0.0 | 0.0 | 0.00 | 0.00 | 0.00 | 95 | 1015.4 |
| 20260904080530 | 75 | 0 | 0.0 | 0.0 | 0.00 | 0.00 | 0.00 | 95 | 1015.4 |
| 20260904080059 | 75 | 0 | 0.0 | 0.0 | 0.00 | 0.00 | 0.00 | 95 | 1015.4 |
| 20260904075528 | 75 | 0 | 0.0 | 0.0 | 0.00 | 0.00 | 0.00 | 95 | 1015.4 |
| 20260904075031 | 75 | 0 | 0.0 | 0.0 | 0.00 | 0.00 | 0.00 | 95 | 1015.3 |
| 20260904074552 | 75 | 0 | 0.0 | 0.0 | 0.00 | 0.00 | 0.00 | 95 | 1015.3 |
| 20260904074028 | 75 | 0 | 0.0 | 0.0 | 0.00 | 0.00 | 0.00 | 95 | 1015.3 |
| 20260904073531 | 75 | 0 | 0.0 | 0.0 | 0.00 | 0.00 | 0.00 | 94 | 1015.3 |
| 20260904073057 | 75 | 0 | 0.0 | 0.0 | 0.00 | 0.00 | 0.00 | 94 | 1015.3 |
| 20260904072529 | 75 | 0 | 0.0 | 0.0 | 0.00 | 0.00 | 0.00 | 94 | 1015.3 |
| 20260904072029 | 75 | 0 | 0.0 | 0.0 | 0.00 | 0.00 | 0.00 | 94 | 1015.3 |
| 20260904071616 | 75 | 0 | 0.0 | 0.0 | 0.00 | 0.00 | 0.00 | 94 | 1015.4 |
| 20260904071030 | 75 | 0 | 0.0 | 0.0 | 0.00 | 0.00 | 0.00 | 94 | 1015.3 |
| 20260904070530 | 75 | 0 | 0.0 | 0.0 | 0.00 | 0.00 | 0.00 | 94 | 1015.4 |
| 20260904070055 | 75 | 0 | 0.0 | 0.0 | 0.00 | 0.00 | 0.00 | 94 | 1015.4 |
| 20260904065529 | 75 | 0 | 0.0 | 0.0 | 0.00 | 0.00 | 0.00 | 94 | 1015.4 |
| 20260904065030 | 75 | 0 | 0.0 | 0.0 | 0.00 | 0.00 | 0.00 | 94 | 1015.5 |
| 20260904064554 | 75 | 0 | 0.0 | 0.0 | 0.00 | 0.00 | 0.00 | 94 | 1015.4 |
| 20260904064029 | 76 | 0 | 0.0 | 0.0 | 0.00 | 0.00 | 0.00 | 94 | 1015.5 |
| 20260904063529 | 76 | 0 | 0.0 | 0.0 | 0.00 | 0.00 | 0.00 | 94 | 1015.6 |
| 20260904063053 | 76 | 0 | 0.0 | 0.0 | 0.00 | 0.00 | 0.00 | 94 | 1015.6 |
| 20260904062529 | 76 | 0 | 0.0 | 0.0 | 0.00 | 0.00 | 0.00 | 94 | 1015.5 |
| 20260904062029 | 76 | 0 | 0.0 | 0.0 | 0.00 | 0.00 | 0.00 | 93 | 1015.6 |
| 20260904061604 | 76 | 0 | 0.0 | 0.0 | 0.00 | 0.00 | 0.00 | 93 | 1015.6 |
| 20260904061029 | 76 | 0 | 0.0 | 0.0 | 0.00 | 0.00 | 0.00 | 94 | 1015.7 |
| 20260904060531 | 76 | 0 | 0.0 | 0.0 | 0.00 | 0.00 | 0.00 | 93 | 1015.7 |
| 20260904060057 | 76 | 0 | 0.0 | 0.0 | 0.00 | 0.00 | 0.00 | 92 | 1015.7 |
| 20260904055528 | 76 | 0 | 0.0 | 0.0 | 0.00 | 0.00 | 0.00 | 93 | 1015.7 |
| 20260904055029 | 76 | 0 | 0.0 | 1.0 | 0.00 | 0.00 | 0.00 | 93 | 1015.7 |
| 20260904054551 | 76 | 0 | 0.0 | 1.0 | 0.00 | 0.00 | 0.00 | 92 | 1015.7 |
| 20260904054028 | 76 | 0 | 0.0 | 1.0 | 0.00 | 0.00 | 0.00 | 92 | 1015.7 |
| 20260904053527 | 76 | 0 | 0.0 | 0.0 | 0.00 | 0.00 | 0.00 | 92 | 1015.7 |
| 20260904053136 | 77 | 0 | 0.0 | 0.0 | 0.00 | 0.00 | 0.00 | 92 | 1015.7 |
| 20260904052527 | 77 | 0 | 0.0 | 0.0 | 0.00 | 0.00 | 0.00 | 92 | 1015.7 |
| 20260904052031 | 77 | 0 | 0.0 | 0.0 | 0.00 | 0.00 | 0.00 | 91 | 1015.6 |
| 20260904051551 | 77 | 0 | 0.0 | 0.0 | 0.00 | 0.00 | 0.00 | 91 | 1015.6 |
| 20260904051028 | 77 | 0 | 0.0 | 1.0 | 0.00 | 0.00 | 0.00 | 92 | 1015.7 |
| 20260904050528 | 77 | 0 | 0.0 | 1.0 | 0.00 | 0.00 | 0.00 | 91 | 1015.7 |
| 20260904050058 | 77 | 0 | 0.0 | 0.0 | 0.00 | 0.00 | 0.00 | 90 | 1015.6 |
| 20260904045529 | 77 | 0 | 0.0 | 0.0 | 0.00 | 0.00 | 0.00 | 90 | 1015.7 |
| 20260904045029 | 77 | 0 | 0.0 | 0.0 | 0.00 | 0.00 | 0.00 | 91 | 1015.7 |
| 20260904044551 | 77 | 0 | 0.0 | 0.0 | 0.00 | 0.00 | 0.00 | 90 | 1015.8 |
| 20260904044029 | 77 | 0 | 0.0 | 0.0 | 0.00 | 0.00 | 0.00 | 90 | 1015.8 |
| 20260904043530 | 78 | 0 | 0.0 | 1.0 | 0.00 | 0.00 | 0.00 | 89 | 1015.8 |
| 20260904043047 | 78 | 0 | 0.0 | 1.0 | 0.00 | 0.00 | 0.00 | 90 | 1015.9 |
| 20260904042529 | 78 | 0 | 0.0 | 1.0 | 0.00 | 0.00 | 0.00 | 89 | 1015.9 |
| 20260904042029 | 78 | 0 | 0.0 | 0.0 | 0.00 | 0.00 | 0.00 | 88 | 1015.9 |
| 20260904041601 | 78 | 0 | 0.0 | 0.0 | 0.00 | 0.00 | 0.00 | 88 | 1015.8 |
| 20260904041030 | 78 | 0 | 0.0 | 0.0 | 0.00 | 0.00 | 0.00 | 88 | 1015.9 |
| 20260904040528 | 78 | 0 | 0.0 | 0.0 | 0.00 | 0.00 | 0.00 | 88 | 1015.9 |
| 20260904040051 | 78 | 0 | 0.0 | 0.0 | 0.00 | 0.00 | 0.00 | 88 | 1016.0 |
| 20260904035529 | 78 | 0 | 0.0 | 0.0 | 0.00 | 0.00 | 0.00 | 88 | 1016.0 |
| 20260904035031 | 78 | 0 | 0.0 | 0.0 | 0.00 | 0.00 | 0.00 | 88 | 1016.0 |
| 20260904034557 | 78 | 0 | 0.0 | 2.0 | 0.00 | 0.00 | 0.00 | 88 | 1016.0 |
| 20260904034028 | 78 | 0 | 0.0 | 2.0 | 0.00 | 0.00 | 0.00 | 88 | 1015.9 |
| 20260904033528 | 79 | 0 | 0.0 | 2.0 | 0.00 | 0.00 | 0.00 | 88 | 1016.0 |
| 20260904033103 | 79 | 0 | 0.0 | 0.0 | 0.00 | 0.00 | 0.00 | 87 | 1016.1 |
| 20260904032530 | 79 | 0 | 0.0 | 0.0 | 0.00 | 0.00 | 0.00 | 87 | 1016.1 |
| 20260904032029 | 79 | 0 | 0.0 | 1.0 | 0.00 | 0.00 | 0.00 | 87 | 1016.2 |
| 20260904031549 | 79 | 0 | 0.0 | 1.0 | 0.00 | 0.00 | 0.00 | 86 | 1016.0 |
| 20260904031029 | 79 | 0 | 0.0 | 1.0 | 0.00 | 0.00 | 0.00 | 87 | 1016.2 |
| 20260904030529 | 79 | 0 | 0.0 | 0.0 | 0.00 | 0.00 | 0.00 | 86 | 1016.2 |
| 20260904030100 | 79 | 0 | 0.0 | 0.0 | 0.00 | 0.00 | 0.00 | 86 | 1016.1 |
| 20260904025531 | 79 | 0 | 0.0 | 0.0 | 0.00 | 0.00 | 0.00 | 85 | 1016.1 |
| 20260904025029 | 80 | 0 | 0.0 | 0.0 | 0.00 | 0.00 | 0.00 | 84 | 1016.2 |
| 20260904024555 | 80 | 0 | 0.0 | 0.0 | 0.00 | 0.00 | 0.00 | 84 | 1016.1 |
| 20260904024028 | 80 | 0 | 0.0 | 1.0 | 0.00 | 0.00 | 0.00 | 83 | 1016.1 |
| 20260904023528 | 80 | 0 | 0.0 | 2.0 | 0.00 | 0.00 | 0.00 | 83 | 1016.1 |
| 20260904023053 | 80 | 0 | 0.0 | 2.0 | 0.00 | 0.00 | 0.00 | 83 | 1016.0 |
| 20260904022529 | 80 | 0 | 0.0 | 2.0 | 0.00 | 0.00 | 0.00 | 84 | 1016.1 |
| 20260904022032 | 80 | 0 | 0.0 | 0.0 | 0.00 | 0.00 | 0.00 | 84 | 1016.0 |
| 20260904021547 | 81 | 0 | 0.0 | 0.0 | 0.00 | 0.00 | 0.00 | 84 | 1016.0 |
| 20260904021030 | 81 | 0 | 0.0 | 0.0 | 0.00 | 0.00 | 0.00 | 83 | 1015.9 |
| 20260904020529 | 81 | 0 | 0.0 | 0.0 | 0.00 | 0.00 | 0.00 | 83 | 1015.8 |
| 20260904020114 | 81 | 0 | 0.0 | 0.0 | 0.00 | 0.00 | 0.00 | 82 | 1015.8 |
| 20260904015528 | 81 | 0 | 0.0 | 0.0 | 0.00 | 0.00 | 0.00 | 81 | 1015.8 |
| 20260904015029 | 82 | 0 | 0.0 | 0.0 | 0.00 | 0.00 | 0.00 | 81 | 1015.8 |
| 20260904014643 | 82 | 0 | 0.0 | 0.0 | 0.00 | 0.00 | 0.00 | 80 | 1015.7 |
| 20260904014030 | 82 | 0 | 0.0 | 0.0 | 0.00 | 0.00 | 0.00 | 80 | 1015.7 |
| 20260904013533 | 82 | 0 | 0.0 | 0.0 | 0.00 | 0.00 | 0.00 | 79 | 1015.7 |
| 20260904013056 | 83 | 0 | 0.0 | 0.0 | 0.00 | 0.00 | 0.00 | 79 | 1015.6 |
| 20260904012529 | 83 | 0 | 0.0 | 1.0 | 0.00 | 0.00 | 0.00 | 79 | 1015.6 |
| 20260904012029 | 83 | 0 | 0.0 | 1.0 | 0.00 | 0.00 | 0.00 | 78 | 1015.7 |
| 20260904011608 | 83 | 28 | 0.0 | 1.0 | 0.00 | 0.00 | 0.00 | 78 | 1015.6 |
| 20260904011028 | 84 | 28 | 0.0 | 1.0 | 0.00 | 0.00 | 0.00 | 77 | 1015.6 |
| 20260904010528 | 84 | 0 | 0.0 | 0.0 | 0.00 | 0.00 | 0.00 | 77 | 1015.5 |
| 20260904010100 | 84 | 0 | 0.0 | 0.0 | 0.00 | 0.00 | 0.00 | 76 | 1015.4 |
| 20260904005528 | 85 | 0 | 0.0 | 0.0 | 0.00 | 0.00 | 0.00 | 74 | 1015.3 |
| 20260904005028 | 85 | 0 | 0.0 | 0.0 | 0.00 | 0.00 | 0.00 | 74 | 1015.2 |
| 20260904004550 | 86 | 0 | 0.0 | 0.0 | 0.00 | 0.00 | 0.00 | 73 | 1015.2 |
| 20260904004028 | 86 | 0 | 0.0 | 0.0 | 0.00 | 0.00 | 0.00 | 72 | 1015.2 |
| 20260904003529 | 87 | 0 | 0.0 | 0.0 | 0.00 | 0.00 | 0.00 | 72 | 1015.2 |
| 20260904003057 | 87 | 0 | 0.0 | 0.0 | 0.00 | 0.00 | 0.00 | 71 | 1015.2 |
| 20260904002529 | 88 | 0 | 0.0 | 0.0 | 0.00 | 0.00 | 0.00 | 71 | 1015.1 |
| 20260904002029 | 88 | 0 | 0.0 | 0.0 | 0.00 | 0.00 | 0.00 | 70 | 1015.2 |
| 20260904001555 | 89 | 0 | 0.0 | 0.0 | 0.00 | 0.00 | 0.00 | 69 | 1015.1 |
| 20260904001029 | 89 | 0 | 0.0 | 0.0 | 0.00 | 0.00 | 0.00 | 67 | 1015.1 |
| 20260904000529 | 90 | 0 | 0.0 | 0.0 | 0.00 | 0.00 | 0.00 | 67 | 1015.1 |
| 20260904000055 | 90 | 0 | 0.0 | 0.0 | 0.00 | 0.00 | 0.00 | 66 | 1015.1 |
| 20260903235528 | 90 | 0 | 0.0 | 0.0 | 0.00 | 0.00 | 0.00 | 65 | 1015.1 |
| 20260903235028 | 91 | 0 | 0.0 | 0.0 | 0.00 | 0.00 | 0.00 | 65 | 1015.1 |
| 20260903234550 | 91 | 0 | 0.0 | 0.0 | 0.00 | 0.00 | 0.00 | 64 | 1015.1 |
| 20260903234029 | 91 | 0 | 0.0 | 1.0 | 0.00 | 0.00 | 0.00 | 62 | 1014.9 |
| 20260903233533 | 92 | 0 | 0.0 | 1.0 | 0.00 | 0.00 | 0.00 | 60 | 1015.0 |
| 20260903233059 | 92 | 27 | 0.0 | 1.0 | 0.00 | 0.00 | 0.00 | 58 | 1014.9 |
| 20260903232530 | 93 | 0 | 0.0 | 0.0 | 0.00 | 0.00 | 0.00 | 57 | 1014.8 |
| 20260903232029 | 93 | 0 | 0.0 | 2.0 | 0.00 | 0.00 | 0.00 | 57 | 1014.7 |
| 20260903231549 | 94 | 0 | 0.0 | 3.0 | 0.00 | 0.00 | 0.00 | 55 | 1014.6 |
| 20260903231029 | 94 | 0 | 0.0 | 3.0 | 0.00 | 0.00 | 0.00 | 54 | 1014.5 |
| 20260903230529 | 94 | 16 | 0.0 | 3.0 | 0.00 | 0.00 | 0.00 | 53 | 1014.5 |
| 20260903230106 | 94 | 0 | 1.0 | 3.0 | 0.00 | 0.00 | 0.00 | 52 | 1014.5 |
| 20260903225531 | 95 | 17 | 0.0 | 4.0 | 0.00 | 0.00 | 0.00 | 53 | 1014.5 |
| 20260903225030 | 95 | 0 | 0.0 | 4.0 | 0.00 | 0.00 | 0.00 | 52 | 1014.4 |
| 20260903224557 | 95 | 21 | 1.0 | 4.0 | 0.00 | 0.00 | 0.00 | 52 | 1014.4 |
| 20260903224031 | 95 | 11 | 1.0 | 3.0 | 0.00 | 0.00 | 0.00 | 51 | 1014.5 |
| 20260903223530 | 95 | 5 | 1.0 | 3.0 | 0.00 | 0.00 | 0.00 | 49 | 1014.6 |
| 20260903223048 | 96 | 30 | 1.0 | 3.0 | 0.00 | 0.00 | 0.00 | 50 | 1014.5 |
| 20260903222529 | 96 | 338 | 0.0 | 3.0 | 0.00 | 0.00 | 0.00 | 49 | 1014.6 |
| 20260903222029 | 96 | 63 | 1.0 | 3.0 | 0.00 | 0.00 | 0.00 | 49 | 1014.6 |
| 20260903221547 | 96 | 0 | 0.0 | 3.0 | 0.00 | 0.00 | 0.00 | 47 | 1014.6 |
| 20260903221031 | 96 | 257 | 0.0 | 3.0 | 0.00 | 0.00 | 0.00 | 49 | 1014.7 |
| 20260903220529 | 97 | 275 | 0.0 | 3.0 | 0.00 | 0.00 | 0.00 | 49 | 1014.6 |
| 20260903220106 | 97 | 347 | 1.0 | 4.0 | 0.00 | 0.00 | 0.00 | 48 | 1014.7 |
| 20260903215528 | 97 | 5 | 1.0 | 4.0 | 0.00 | 0.00 | 0.00 | 48 | 1014.7 |
| 20260903215031 | 97 | 221 | 1.0 | 4.0 | 0.00 | 0.00 | 0.00 | 49 | 1014.7 |
| 20260903214554 | 98 | 0 | 1.0 | 4.0 | 0.00 | 0.00 | 0.00 | 50 | 1014.7 |
| 20260903214029 | 98 | 15 | 1.0 | 4.0 | 0.00 | 0.00 | 0.00 | 46 | 1014.7 |
| 20260903213528 | 99 | 0 | 1.0 | 3.0 | 0.00 | 0.00 | 0.00 | 46 | 1014.8 |
| 20260903213100 | 99 | 313 | 0.0 | 2.0 | 0.00 | 0.00 | 0.00 | 44 | 1014.8 |
| 20260903212529 | 100 | 0 | 0.0 | 4.0 | 0.00 | 0.00 | 0.00 | 43 | 1014.8 |
| 20260903212029 | 101 | 0 | 1.0 | 4.0 | 0.00 | 0.00 | 0.00 | 44 | 1014.8 |
| 20260903211558 | 101 | 225 | 1.0 | 4.0 | 0.00 | 0.00 | 0.00 | 44 | 1014.9 |
| 20260903211028 | 101 | 211 | 1.0 | 4.0 | 0.00 | 0.00 | 0.00 | 46 | 1015.0 |
| 20260903210529 | 102 | 213 | 1.0 | 3.0 | 0.00 | 0.00 | 0.00 | 43 | 1015.0 |